This is the latest recevied weather packets stored in our database for station/object LU3HGB-WX. If no packets are shown the sender has not sent any weather packets the latest 10 day(s).
| Time | Temp. | Humidity | Pressure | Rain* | Wind** | Luminosity | Snow |
|---|---|---|---|---|---|---|---|
| 1778085459 | 26.67° C | 49% | 1008 hPa | 0 mm | - | 698 W/m² | - |
| 1778085160 | 26.67° C | 47% | 1008 hPa | 0 mm | - | 702 W/m² | - |
| 1778084859 | 26.67° C | 48% | 1008 hPa | 0 mm | - | 702 W/m² | - |
| 1778084560 | 26.67° C | 45% | 1008 hPa | 0 mm | - | 700 W/m² | - |
| 1778084260 | 26.67° C | 45% | 1008 hPa | 0 mm | - | 702 W/m² | - |
| 1778083960 | 26.11° C | 47% | 1008 hPa | 0 mm | - | 701 W/m² | - |
| 1778083659 | 26.11° C | 47% | 1008 hPa | 0 mm | - | 699 W/m² | - |
| 1778083361 | 26.11° C | 47% | 1008 hPa | 0 mm | - | 699 W/m² | - |
| 1778083062 | 26.11° C | 48% | 1008 hPa | 0 mm | - | 695 W/m² | - |
| 1778082762 | 25.56° C | 47% | 1008 hPa | 0 mm | - | 694 W/m² | - |
| 1778082460 | 25° C | 48% | 1008 hPa | 0 mm | - | 691 W/m² | - |
| 1778082160 | 25° C | 51% | 1008 hPa | 0 mm | - | 687 W/m² | - |
| 1778081860 | 24.44° C | 53% | 1008 hPa | 0 mm | - | 684 W/m² | - |
| 1778081560 | 24.44° C | 52% | 1008 hPa | 0 mm | - | 676 W/m² | - |
| 1778081260 | 24.44° C | 51% | 1008 hPa | 0 mm | - | 669 W/m² | - |
| 1778080960 | 23.89° C | 53% | 1008 hPa | 0 mm | - | 667 W/m² | - |
| 1778080660 | 23.89° C | 52% | 1008 hPa | 0 mm | - | 660 W/m² | - |
| 1778080361 | 23.89° C | 54% | 1009 hPa | 0 mm | - | 652 W/m² | - |
| 1778080060 | 23.89° C | 54% | 1009 hPa | 0 mm | - | 606 W/m² | - |
| 1778079761 | 23.89° C | 55% | 1009 hPa | 0 mm | - | 620 W/m² | - |
| 1778079461 | 23.89° C | 56% | 1009 hPa | 0 mm | - | 626 W/m² | - |
| 1778079160 | 23.33° C | 53% | 1009 hPa | 0 mm | - | 616 W/m² | - |
| 1778078859 | 23.33° C | 56% | 1009 hPa | 0 mm | - | 607 W/m² | - |
| 1778078560 | 23.33° C | 56% | 1009 hPa | 0 mm | - | 597 W/m² | - |
| 1778078260 | 23.33° C | 56% | 1009 hPa | 0 mm | - | 586 W/m² | - |
* Rain latest hour (hover to see other rain measurements)
** Current wind speed in m/s (hover to see current wind gust speed)